Regional Weather Roundup
Issued by NWS

Home | Current Version | Previous Version | Text Only | Print | Product List | Glossary Off
Versions: 1 2 3 4 5 6 7 8 9 10 11 12 13 14 15 16 17 18 19 20 21 22 23 24 25 26 27 28 29 30 31 32 33 34 35 36 37 38 39 40 41 42 43 44 45 46 47 48 49 50

000
ASUS45 KBOU 211307
RWRCO

WEATHER ROUNDUP FOR COLORADO
NATIONAL WEATHER SERVICE DENVER/BOULDER CO
700 AM MDT THU SEP 21 2017

NOTE: "FAIR" INDICATES FEW OR NO CLOUDS BELOW 12000 FEET WITH NO
SIGNIFICANT WEATHER AND/OR OBSTRUCTIONS TO VISIBILITY.

COZ001>005-013-030-031-211400-
...NORTHWEST COLORADO...

CITY           SKY/WX    TMP DP  RH WIND       PRES   REMARKS
CRAIG          FAIR      61  25  25 SW12G20   29.83R
HAYDEN         FAIR      59  28  30 S9        29.88R
MEEKER         FAIR      59  30  33 S9        29.86R
RABBIT EARS PA FAIR      45  23  42 SW17G36   30.09R
STEAMBOAT SPGS FAIR      42  32  68 NE5       29.88R
WALDEN         FAIR      50  25  37 S10G17    29.95R
$$

COZ006>008-011-211400-
...WEST CENTRAL VALLEYS...

CITY           SKY/WX    TMP DP  RH WIND       PRES   REMARKS
GRAND JUNCTION FAIR      68  36  30 S16       29.82S
MONTROSE       FAIR      61  30  31 S12       29.95R
EAGLE          FAIR      49  27  42 VRB5      29.92R
RIFLE          FAIR      54  31  41 CALM      29.85R
DELTA          NOT AVBL
NUCLA          FAIR      63  32  31 S21G32    29.97S
$$

COZ017>023-064>068-211400-
...SOUTHWEST COLORADO...

CITY           SKY/WX    TMP DP  RH WIND       PRES   REMARKS
DURANGO        FAIR      40  30  67 CALM      30.09R
CORTEZ         FAIR      43  34  70 CALM      30.01R
PAGOSA SPRINGS NOT AVBL
TELLURIDE      FAIR      53  26  34 SE16G26   30.15F
WOLF CREEK PAS FAIR      34  27  75 S25G37    30.33S WCI  21
$$

COZ009-010-012-014-032>034-037-058>063-211400-
...CENTRAL COLORADO...

CITY           SKY/WX    TMP DP  RH WIND       PRES   REMARKS
ASPEN          FAIR      50  26  39 SE10G18   30.00R
BUENA VISTA    FAIR      52  22  31 SE9       30.04R
COPPER MTN     FAIR      45  12  26 S23G29    30.22S
BERTHOUD PASS  FAIR      37  30  75 W26G47    30.22R
COTTONWOOD PAS FAIR      55  21  26 W25G37    30.12S
GUNNISON       FAIR      32  28  85 CALM      30.10S
KREMMLING      FAIR      37  28  70 CALM      29.97R
LEADVILLE      FAIR      36  19  50 N5        30.11S
MONARCH PASS   FAIR      37  21  52 SW33      30.36R
SALIDA         FAIR      53  25  34 CALM      30.11R
SUNLIGHT       FAIR      39  27  60 SW14G32   30.15R
WILKERSON PASS FAIR      41  19  42 SW22G29   30.19R
$$

COZ069>075-211400-
...SAN LUIS VALLEY/SANGRE DE CRISTO MOUNTAINS...

CITY           SKY/WX    TMP DP  RH WIND       PRES   REMARKS
ALAMOSA        FAIR      44  33  65 SE8       30.10R
DEL NORTE      FAIR      48  29  48 W12       30.12S
LA VETA PASS   FAIR      45  30  57 S30G54    30.25R
SAGUACHE       FAIR      34  28  80 N8        30.12S WCI  27
$$

COZ035-036-038>040-211400-
...NORTHERN COLORADO FRONT RANGE...

CITY           SKY/WX    TMP DP  RH WIND       PRES   REMARKS
DENVER INTL AP FAIR      64  24  21 S14       29.79S
DMNS CITY PARK   N/A     51  36  57 NE8       29.80R
AURORA         PTCLDY    64  25  23 S16       29.81F
FRONT RANGE AP FAIR      68  27  21 S16       29.81R
ERIE MUNI ARPT FAIR      40  34  79 CALM      29.85R
BOULDER MUN AP FAIR      46  36  66 CALM      29.79S
CENTENNIAL     FAIR      62  26  25 S16       29.84R
BROOMFIELD     PTCLDY    50  32  50 CALM      29.81S
FORT COLLINS   NOT AVBL
LONGMONT       FAIR      40  34  77 CALM      29.81S
$$

COZ041-046-047-076>085-087-088-211400-
...PIKES PEAK/PALMER DIVIDE AND SOUTHERN FOOTHILLS...

CITY           SKY/WX    TMP DP  RH WIND       PRES   REMARKS
COLO. SPRINGS  FAIR      54  33  45 E10       29.91R
A. F. ACADEMY  FAIR      43  29  59 N6        29.90S
SCHRIEVER AFB  FAIR      50  33  51 W3        29.91R
CHEYENNE MTN   FAIR      65  21  18 SE24G46   29.87R
ELLICOTT         N/A    N/A N/A N/A S9        29.90R
FALCON         FAIR      47  29  50 SW6       29.95R
FORT CARSON    FAIR      50  35  55 CALM      29.87S
LIMON          FAIR      36  33  89 N6        29.85S
MONUMENT HILL  FAIR      52  27  37 SW12      29.93F
CANON CITY     CLEAR     45  32  61 SE3       29.87R
WALSENBURG     FAIR      66  28  24 S20G30    29.92F
TRINIDAD       FAIR      65  30  27 SW8       29.92F
$$

COZ042>045-048>051-090-091-211400-
...NORTHEAST COLORADO...

CITY           SKY/WX    TMP DP  RH WIND       PRES   REMARKS
GREELEY ARPT   FAIR      40  34  79 NW5       29.78F
AKRON          FAIR      47  35  63 CALM      29.77S
BURLINGTON     FAIR      53  41  63 S13       29.80S
WRAY           FAIR      46  41  81 E5        29.78R
YUMA           FAIR      37  36  93 E3        29.77R
STERLING       FAIR      41  36  81 N3        29.75S
HOLYOKE        NOT AVBL
FORT MORGAN    NOT AVBL
$$

COZ086-089-092>099-211400-
...SOUTHEAST COLORADO...

CITY           SKY/WX    TMP DP  RH WIND       PRES   REMARKS
PUEBLO         FAIR      48  34  58 CALM      29.84R
LA JUNTA       FAIR      50  37  61 W5        29.83R
LAMAR          FAIR      42  35  76 W5        29.80S HAZE
SPRINGFIELD      N/A     52  43  71 SW10      29.86S
$$



USA.gov is the U.S. government's official web portal to all federal, state and local government web resources and services.